GSAT0203 (GALILEO 7)

Last updated on Thu Oct 30 2025 00:02:35 GMT+0000 (Coordinated Universal Time)

1 40544U 15017A 25301.51213600 -.00000067 00000+0 00000+0 0 9992 2 40544 56.8568 347.9149 0006085 258.8101 101.1862 1.70476199 65259
UTC large
Height (km)
Speed (km/s)
/
Latitude / Longitude
Inclination (degrees)
Orbital Period (minutes)
Azimuth
Elevation
Range (km)
Doppler Factor

Next 0 passes for location: London (51.5072 / 0.1276)

Sorry there are no passes over London.